Simultaneous Nadir Overpasses (SNOs) Predictions

Prediction of SNOs between GOES-16 and AQUA Satellite Orbit:

Table of predicted SNOs for the next 14.0 days since TLE Epoch: 7/19/2019
Index Date Time (GOES-16) GOES-16 Lat,Lon AQUA Lat,Lon Distance(km) Time Diff (sec)
1 07/21/2019 06:38:12 -0.02, -75.20 0.02, -75.33 15.61 80
2 07/23/2019 06:23:21 -0.02, -75.20 -0.63, -72.38 321.04 80
3 07/23/2019 18:44:45 0.02, -75.20 -0.46, -77.58 269.33 80
4 07/25/2019 18:35:13 0.02, -75.21 0.13, -74.61 67.92 80
5 07/27/2019 18:23:02 0.02, -75.22 0.79, -71.66 405.30 80
6 07/28/2019 06:44:18 -0.02, -75.23 0.32, -76.82 180.61 80
7 07/30/2019 06:30:54 -0.03, -75.25 -0.34, -73.87 156.89 7
8 07/30/2019 18:50:50 0.03, -75.24 -0.80, -79.05 433.41 80
9 08/01/2019 06:19:55 -0.03, -75.26 -0.93, -70.91 494.69 80
10 08/01/2019 18:38:39 0.03, -75.26 -0.14, -76.10 95.42 80




NCC Satellite Simultaneous Nadir Overpasses (SNOs) Prediction Service
